Location: Newark
(43.0000°N, 1.6781°W)
Time: 19:20:29
(UTC+00:00)

Transit 2A Rocket - Pass Details

Date: 19 April 2021
Orbit: 594 x 908 km, 66.7° (Epoch: 05 May)

Event Time Altitude Azimuth Distance (km) Brightness Sun altitude
Rises 00:14:54 0° 331° (NNW) 2,881 8.7 -35.8°
Reaches altitude 10° 00:17:07 10° 333° (NNW) 1,998 7.8 -35.8°
Enters shadow 00:18:04 16° 336° (NNW) 1,632 7.2 -35.7°
